Radiation Dose at Monitoring Post of Fukushima Daini Nuclear Power Station
Date,Time,MP-1(microSv/h),MP-2(microSv/h),MP-3(microSv/h),MP-4(microSv/h),MP-5(microSv/h),MP-6(microSv/h),MP-7(microSv/h),Wind Direction,Wind Velocity(m/s),Rain
2018/03/30,00:00,0.323,0.206,0.334,0.318,0.303,0.166,0.100,north,1.1,No
2018/03/30,00:10,0.323,0.205,0.333,0.318,0.303,0.166,0.100,northwest,0.6,No
2018/03/30,00:20,0.324,0.205,0.332,0.318,0.305,0.166,0.101,west-northwest,0.9,No
2018/03/30,00:30,0.323,0.206,0.332,0.320,0.304,0.167,0.100,west-southwest,2.0,No
2018/03/30,00:40,0.322,0.204,0.333,0.317,0.306,0.166,0.100,west-southwest,1.0,No
2018/03/30,00:50,0.324,0.206,0.334,0.316,0.307,0.167,0.100,north-northwest,0.8,No
2018/03/30,01:00,0.322,0.206,0.333,0.319,0.304,0.167,0.100,west,1.9,No
2018/03/30,01:10,0.325,0.206,0.333,0.318,0.305,0.166,0.100,west-northwest,2.4,No
2018/03/30,01:20,0.324,0.205,0.333,0.317,0.306,0.166,0.099,northwest,5.0,No
2018/03/30,01:30,0.324,0.206,0.333,0.318,0.305,0.166,0.100,northwest,6.0,No
2018/03/30,01:40,0.324,0.205,0.334,0.317,0.305,0.167,0.100,northwest,7.1,No
2018/03/30,01:50,0.324,0.206,0.334,0.319,0.305,0.167,0.100,north-northwest,5.6,No
2018/03/30,02:00,0.325,0.207,0.334,0.319,0.305,0.167,0.099,north-northwest,8.4,No
2018/03/30,02:10,0.324,0.206,0.332,0.318,0.306,0.166,0.100,north-northwest,13.4,No
2018/03/30,02:20,0.323,0.204,0.334,0.317,0.306,0.167,0.099,north-northwest,13.4,No
2018/03/30,02:30,0.325,0.205,0.332,0.318,0.304,0.167,0.101,north,14.2,No
2018/03/30,02:40,0.324,0.207,0.334,0.317,0.304,0.166,0.100,north-northwest,13.4,No
2018/03/30,02:50,0.324,0.205,0.332,0.318,0.306,0.166,0.101,north-northwest,12.6,No
2018/03/30,03:00,0.324,0.205,0.335,0.319,0.305,0.167,0.099,north-northwest,10.1,No
2018/03/30,03:10,0.324,0.205,0.334,0.318,0.305,0.167,0.100,north-northwest,6.4,No
2018/03/30,03:20,0.326,0.205,0.334,0.317,0.304,0.166,0.100,north-northwest,3.9,No
2018/03/30,03:30,0.324,0.205,0.334,0.319,0.307,0.166,0.100,north,2.3,No
2018/03/30,03:40,0.325,0.206,0.334,0.318,0.306,0.166,0.101,north-northwest,2.1,No
2018/03/30,03:50,0.324,0.206,0.334,0.317,0.305,0.167,0.100,north,5.4,No
2018/03/30,04:00,0.324,0.204,0.334,0.318,0.306,0.165,0.100,north,8.8,No
2018/03/30,04:10,0.325,0.205,0.335,0.318,0.307,0.166,0.099,north,8.7,No
2018/03/30,04:20,0.323,0.206,0.335,0.317,0.304,0.167,0.100,north,11.7,No
2018/03/30,04:30,0.324,0.207,0.334,0.318,0.305,0.166,0.100,north,10.1,No
2018/03/30,04:40,0.325,0.206,0.333,0.319,0.306,0.166,0.101,north,9.2,No
2018/03/30,04:50,0.323,0.206,0.334,0.317,0.304,0.166,0.101,north-northwest,9.8,No
2018/03/30,05:00,0.325,0.206,0.332,0.318,0.304,0.167,0.100,north,9.2,No
2018/03/30,05:10,0.324,0.206,0.334,0.317,0.303,0.167,0.100,north-northwest,3.6,No
2018/03/30,05:20,0.323,0.204,0.334,0.318,0.306,0.165,0.101,north-northwest,4.5,No
2018/03/30,05:30,0.324,0.206,0.334,0.319,0.305,0.166,0.100,north-northwest,7.9,No
2018/03/30,05:40,0.325,0.206,0.334,0.318,0.305,0.167,0.100,north,10.9,No
2018/03/30,05:50,0.324,0.207,0.333,0.318,0.305,0.166,0.100,north,8.4,No
2018/03/30,06:00,0.325,0.205,0.335,0.319,0.308,0.167,0.100,north,5.4,No
2018/03/30,06:10,0.325,0.205,0.333,0.319,0.304,0.166,0.100,north,5.3,No
2018/03/30,06:20,0.325,0.205,0.333,0.318,0.303,0.166,0.100,northwest,5.9,No
2018/03/30,06:30,0.325,0.206,0.334,0.318,0.305,0.166,0.100,west-northwest,3.3,No
2018/03/30,06:40,0.324,0.205,0.334,0.317,0.305,0.165,0.100,north-northwest,6.7,No
2018/03/30,06:50,0.324,0.205,0.334,0.317,0.305,0.166,0.099,northwest,4.1,No
2018/03/30,07:00,0.324,0.205,0.334,0.318,0.304,0.167,0.099,north-northwest,4.8,No
2018/03/30,07:10,0.325,0.206,0.333,0.320,0.305,0.166,0.100,north-northwest,5.3,No
2018/03/30,07:20,0.324,0.205,0.333,0.318,0.305,0.166,0.100,north,5.8,No
2018/03/30,07:30,0.324,0.205,0.335,0.316,0.304,0.167,0.099,north,3.5,No
2018/03/30,07:40,0.325,0.206,0.333,0.317,0.304,0.166,0.100,north,4.8,No
2018/03/30,07:50,0.324,0.205,0.334,0.317,0.305,0.166,0.100,north-northwest,3.0,No
2018/03/30,08:00,0.324,0.204,0.335,0.318,0.304,0.166,0.100,north,2.3,No
2018/03/30,08:10,0.324,0.205,0.334,0.316,0.305,0.166,0.100,north-northwest,5.2,No
2018/03/30,08:20,0.326,0.205,0.334,0.317,0.307,0.165,0.100,north-northwest,5.2,No
2018/03/30,08:30,0.323,0.204,0.334,0.315,0.305,0.166,0.100,north-northwest,2.9,No
2018/03/30,08:40,0.322,0.206,0.335,0.317,0.306,0.166,0.101,north-northwest,6.0,No
2018/03/30,08:50,0.322,0.205,0.334,0.315,0.304,0.166,0.099,north,8.1,No
2018/03/30,09:00,0.322,0.204,0.334,0.318,0.303,0.167,0.100,north-northeast,7.6,No
2018/03/30,09:10,0.325,0.205,0.334,0.314,0.306,0.164,0.100,north-northeast,7.2,No
2018/03/30,09:20,0.322,0.205,0.334,0.317,0.305,0.166,0.100,north-northeast,6.9,No
2018/03/30,09:30,0.324,0.206,0.334,0.316,0.304,0.164,0.099,north,4.6,No
2018/03/30,09:40,0.324,0.204,0.334,0.314,0.303,0.166,0.100,north-northwest,6.2,No
2018/03/30,09:50,0.323,0.204,0.333,0.318,0.304,0.166,0.100,north-northwest,4.1,No
2018/03/30,10:00,0.324,0.204,0.336,0.316,0.302,0.165,0.101,north,6.7,No
2018/03/30,10:10,0.322,0.205,0.333,0.316,0.305,0.165,0.101,north-northeast,7.3,No
2018/03/30,10:20,0.324,0.205,0.334,0.319,0.303,0.166,0.099,north-northeast,7.5,No
2018/03/30,10:30,0.321,0.204,0.335,0.315,0.305,0.166,0.099,north-northeast,6.8,No
2018/03/30,10:40,0.325,0.206,0.333,0.317,0.302,0.165,0.100,north-northeast,5.0,No
2018/03/30,10:50,0.324,0.204,0.335,0.318,0.305,0.166,0.100,north-northeast,6.3,No
2018/03/30,11:00,0.325,0.206,0.333,0.315,0.302,0.166,0.100,north-northeast,6.4,No
2018/03/30,11:10,0.321,0.205,0.333,0.318,0.305,0.165,0.100,north-northeast,4.7,No
2018/03/30,11:20,0.325,0.206,0.331,0.318,0.302,0.165,0.100,northwest,6.7,No
2018/03/30,11:30,0.322,0.205,0.332,0.316,0.305,0.167,0.101,west-northwest,3.5,No
2018/03/30,11:40,0.324,0.206,0.333,0.319,0.303,0.165,0.099,northwest,5.1,No
2018/03/30,11:50,0.323,0.205,0.332,0.318,0.305,0.165,0.100,northwest,4.8,No
2018/03/30,12:00,0.323,0.206,0.331,0.316,0.304,0.165,0.100,north,5.9,No
2018/03/30,12:10,0.323,0.205,0.334,0.319,0.304,0.165,0.099,north,7.5,No
2018/03/30,12:20,0.324,0.205,0.331,0.319,0.304,0.166,0.100,north-northeast,8.3,No
2018/03/30,12:30,0.323,0.206,0.334,0.314,0.303,0.166,0.099,north-northeast,9.5,No
2018/03/30,12:40,0.323,0.205,0.333,0.319,0.306,0.166,0.099,north,7.1,No
2018/03/30,12:50,0.324,0.205,0.332,0.319,0.303,0.166,0.100,north-northeast,8.3,No
2018/03/30,13:00,0.325,0.204,0.335,0.314,0.306,0.165,0.100,north-northeast,7.6,No
2018/03/30,13:10,0.323,0.206,0.331,0.319,0.303,0.167,0.100,north-northeast,8.5,No
2018/03/30,13:20,0.325,0.203,0.334,0.319,0.306,0.165,0.100,northeast,10.0,No
2018/03/30,13:30,0.325,0.206,0.331,0.317,0.304,0.166,0.099,northeast,9.5,No
2018/03/30,13:40,0.324,0.206,0.333,0.316,0.305,0.166,0.099,northeast,9.8,No
2018/03/30,13:50,0.325,0.207,0.334,0.320,0.305,0.166,0.101,north-northeast,9.8,No
2018/03/30,14:00,0.323,0.206,0.331,0.316,0.304,0.167,0.100,north-northeast,7.2,No
2018/03/30,14:10,0.324,0.206,0.334,0.318,0.306,0.166,0.100,northeast,6.8,No
2018/03/30,14:20,0.325,0.205,0.332,0.319,0.303,0.167,0.099,northeast,8.2,No
2018/03/30,14:30,0.322,0.205,0.334,0.318,0.306,0.166,0.101,northeast,9.0,No
2018/03/30,14:40,0.326,0.206,0.334,0.321,0.302,0.165,0.100,northeast,8.9,No
2018/03/30,14:50,0.322,0.205,0.332,0.317,0.305,0.166,0.100,east-northeast,4.8,No
2018/03/30,15:00,0.324,0.205,0.333,0.320,0.304,0.166,0.099,northeast,4.9,No
2018/03/30,15:10,0.323,0.206,0.333,0.317,0.304,0.166,0.100,north-northeast,5.3,No
2018/03/30,15:20,0.324,0.205,0.334,0.321,0.304,0.165,0.099,north,5.7,No
2018/03/30,15:30,0.323,0.206,0.336,0.321,0.306,0.166,0.100,north-northeast,5.0,No
2018/03/30,15:40,0.325,0.206,0.334,0.318,0.302,0.166,0.100,north-northeast,4.2,No
2018/03/30,15:50,0.323,0.205,0.336,0.321,0.305,0.164,0.099,north-northeast,8.2,No
2018/03/30,16:00,0.324,0.207,0.337,0.320,0.303,0.165,0.099,north-northeast,3.6,No
2018/03/30,16:10,0.323,0.206,0.335,0.320,0.305,0.165,0.099,north-northeast,7.5,No
2018/03/30,16:20,0.324,0.207,0.336,0.320,0.305,0.166,0.100,north-northeast,6.4,No
2018/03/30,16:30,0.325,0.207,0.335,0.319,0.305,0.166,0.100,northeast,6.4,No
2018/03/30,16:40,0.325,0.205,0.334,0.320,0.304,0.166,0.100,northeast,6.2,No
2018/03/30,16:50,0.325,0.206,0.335,0.319,0.305,0.166,0.100,northeast,5.1,No
2018/03/30,17:00,0.326,0.206,0.335,0.320,0.304,0.167,0.100,east-northeast,4.8,No
2018/03/30,17:10,0.325,0.207,0.334,0.321,0.305,0.167,0.100,north-northeast,6.2,No
2018/03/30,17:20,0.324,0.206,0.335,0.319,0.305,0.166,0.099,north-northeast,5.0,No
2018/03/30,17:30,0.326,0.208,0.334,0.318,0.304,0.167,0.100,north-northeast,5.5,No
2018/03/30,17:40,0.324,0.207,0.334,0.321,0.306,0.168,0.100,north-northeast,8.9,No
2018/03/30,17:50,0.325,0.205,0.335,0.319,0.305,0.166,0.100,north-northeast,7.6,No
2018/03/30,18:00,0.326,0.206,0.334,0.319,0.307,0.168,0.100,north-northeast,7.4,No
2018/03/30,18:10,0.326,0.206,0.334,0.320,0.304,0.167,0.100,north,4.8,No
2018/03/30,18:20,0.327,0.207,0.335,0.319,0.306,0.168,0.100,north-northwest,2.9,No
2018/03/30,18:30,0.325,0.206,0.335,0.319,0.305,0.168,0.100,northwest,4.4,No
2018/03/30,18:40,0.326,0.206,0.334,0.321,0.305,0.166,0.100,northwest,5.9,No
2018/03/30,18:50,0.326,0.206,0.335,0.321,0.304,0.167,0.100,west-northwest,3.8,No
2018/03/30,19:00,0.327,0.206,0.335,0.320,0.303,0.167,0.101,northwest,4.7,No
2018/03/30,19:10,0.325,0.206,0.334,0.318,0.304,0.167,0.100,west-northwest,3.9,No
2018/03/30,19:20,0.325,0.206,0.334,0.321,0.304,0.167,0.100,northwest,2.1,No
2018/03/30,19:30,0.325,0.206,0.337,0.320,0.305,0.166,0.101,northwest,2.6,No
2018/03/30,19:40,0.325,0.208,0.333,0.319,0.304,0.167,0.100,north-northwest,3.0,No
2018/03/30,19:50,0.323,0.205,0.335,0.319,0.304,0.168,0.100,northwest,1.2,No
2018/03/30,20:00,0.325,0.206,0.335,0.320,0.304,0.166,0.101,north-northwest,2.3,No
2018/03/30,20:10,0.325,0.207,0.336,0.318,0.305,0.166,0.099,north-northwest,1.8,No
2018/03/30,20:20,0.325,0.207,0.335,0.318,0.306,0.167,0.099,north,3.8,No
2018/03/30,20:30,0.326,0.206,0.333,0.319,0.304,0.167,0.100,north-northwest,0.6,No
2018/03/30,20:40,0.326,0.207,0.335,0.319,0.304,0.166,0.099,north-northwest,4.3,No
2018/03/30,20:50,0.326,0.206,0.336,0.319,0.303,0.166,0.100,north,5.5,No
2018/03/30,21:00,0.325,0.206,0.335,0.320,0.304,0.166,0.100,north,3.0,No
2018/03/30,21:10,0.325,0.206,0.334,0.320,0.305,0.167,0.100,north,3.3,No
2018/03/30,21:20,0.327,0.206,0.336,0.320,0.305,0.167,0.100,north-northwest,4.1,No
2018/03/30,21:30,0.325,0.206,0.336,0.318,0.304,0.166,0.100,north-northwest,2.8,No
2018/03/30,21:40,0.325,0.206,0.336,0.319,0.306,0.166,0.100,northwest,1.5,No
2018/03/30,21:50,0.325,0.206,0.337,0.319,0.304,0.167,0.101,west-northwest,1.4,No
2018/03/30,22:00,0.325,0.207,0.336,0.320,0.306,0.167,0.100,north,4.2,No
2018/03/30,22:10,0.326,0.207,0.334,0.319,0.304,0.167,0.101,north,4.6,No
2018/03/30,22:20,0.326,0.206,0.336,0.321,0.304,0.166,0.100,north,5.7,No
2018/03/30,22:30,0.326,0.206,0.337,0.320,0.304,0.165,0.100,north,5.7,No
2018/03/30,22:40,0.325,0.207,0.336,0.319,0.304,0.166,0.099,north,4.7,No
2018/03/30,22:50,0.326,0.207,0.335,0.320,0.302,0.167,0.101,north-northwest,2.2,No
2018/03/30,23:00,0.326,0.207,0.335,0.319,0.302,0.167,0.100,north,3.4,No
2018/03/30,23:10,0.326,0.206,0.336,0.320,0.305,0.167,0.100,north-northwest,3.0,No
2018/03/30,23:20,0.326,0.206,0.336,0.320,0.304,0.167,0.100,northwest,2.6,No
2018/03/30,23:30,0.325,0.207,0.337,0.320,0.304,0.166,0.100,northwest,2.2,No
2018/03/30,23:40,0.325,0.207,0.335,0.320,0.304,0.166,0.101,north-northwest,1.5,No
2018/03/30,23:50,0.325,0.207,0.335,0.321,0.304,0.167,0.101,north,2.0,No
